Regional Weather Roundup
Issued by NWS

Home | Current Version | Previous Version | Text Only | Print | Product List | Glossary Off
Versions: 1 2 3 4 5 6 7 8 9 10 11 12 13 14 15 16 17 18 19 20 21 22 23 24 25 26 27 28 29 30 31 32 33 34 35 36 37 38 39 40 41 42 43 44 45 46 47 48 49 50

000
ASUS43 KMPX 050310
RWRMN
WEATHER ROUNDUP FOR MINNESOTA
NATIONAL WEATHER SERVICE TWIN CITIES/CHANHASSEN MN
1000 PM CDT MON MAY 04 2015


NOTE: "FAIR" INDICATES FEW OR NO CLOUDS BELOW 12,000 FEET WITH NO
SIGNIFICANT WEATHER AND/OR OBSTRUCTIONS TO VISIBILITY. N/A MEANS
CURRENT SKY AND/OR WEATHER CONDITIONS ARE NOT AVAILABLE.

MNZ060>063-068>070-050400-
   Twin Cities Metro

CITY           SKY/WX    TMP DP  RH WIND       PRES   REMARKS
TWIN CITIES    MOCLDY    63  30  28 NE5       30.18R
ST PAUL        PTCLDY    60  39  45 CALM      30.18R
CRYSTAL        PTCLDY    56  33  42 N5        30.18R
BLAINE         PTCLDY    57  32  38 N6        30.19R
LAKEVILLE      PTCLDY    48  39  71 CALM      30.18R
EDEN PRAIRIE   PTCLDY    61  29  29 NE5       30.17R
SOUTH ST PAUL  PTCLDY    58  37  46 CALM      30.18R
LAKE ELMO      FAIR      54  37  54 CALM      30.19S
$$
MNZ001>005-007-008-013>017-022>024-027-028-050400-
   Northwest Minnesota

CITY           SKY/WX    TMP DP  RH WIND       PRES   REMARKS
BEMIDJI        CLEAR     47  28  46 E3        30.22R
HALLOCK        CLEAR     52  28  40 SE5       30.16R
ROSEAU         CLEAR     52  28  40 SE5       30.19R
WARROAD        CLEAR     48  34  57 CALM      30.20R
THIEF RVR FALL CLEAR     55  25  30 SE5       30.19S
CROOKSTON      FAIR      59  27  29 SE5       30.19R
FOSSTON        CLEAR     48  12  23 CALM      30.21R
DETROIT LAKES  CLEAR     55  37  50 CALM      30.21R
MOORHEAD       CLEAR     57  25  28 S5        30.19R
PARK RAPIDS    CLEAR     56  29  35 E6        30.21R
MAHNOMEN       FAIR      55  28  34 SE5       30.19S
$$
MNZ006-009>011-018-025>026-050400-
   North Central Minnesota

CITY           SKY/WX    TMP DP  RH WIND       PRES   REMARKS
BAUDETTE       CLEAR     48  37  65 CALM      30.20R
FLAG ISLAND    CLEAR     52  41  66 CALM      30.18R
INTL FALLS     CLEAR     40  31  70 CALM      30.21R
WASKISH        CLEAR     45  36  70 CALM      30.21
BIG FORK       CLEAR     45  27  49 CALM      30.23R
LONGVILLE      CLEAR     43  28  56 CALM      30.22R
GRAND RAPIDS   CLEAR     48  25  40 CALM      30.23R
CRANE LAKE     CLEAR     37  34  87 CALM      30.24S
ORR            CLEAR     46  27  46 CALM      30.21R
COOK           CLEAR     45  30  57 CALM      30.23R HAZE
WALKER         FAIR      49  28  43 CALM      30.22R
$$
MNZ012-019>021-037-050400-
   Northeast Minnesota

CITY           SKY/WX    TMP DP  RH WIND       PRES   REMARKS
DULUTH         CLEAR     51  22  31 CALM      30.22R
ELY            CLEAR     45  28  53 CALM      30.23R
HIBBING        CLEAR     41  25  53 NW6       30.22R
EVELETH        CLEAR     43  28  56 CALM      30.24R
DULUTH HARBOR  CLEAR     48  34  57 NE5       30.22R
TWO HARBORS    CLEAR     48  32  53 N3        30.21R
SILVER BAY     CLEAR     43  27  52 CALM      30.21S
GRAND MARAIS     N/A     42  31  64 CALM      30.23R
G MARAIS ARPRT CLEAR     37  27  65 NW3       30.25R
$$
MNZ029>031-032-039>041-046>048-054>057-064-050400-
   West Central Minnesota

CITY           SKY/WX    TMP DP  RH WIND       PRES   REMARKS
FERGUS FALLS   CLEAR     55  30  38 E3        30.20R
WHEATON        PTCLDY    55  27  33 E7        30.19R
MORRIS         CLEAR     55  28  35 E8        30.17S
ALEXANDRIA     CLEAR     53  30  41 E6        30.20S
ELBOW LAKE     FAIR      57  31  37 NE7       30.19R
WADENA         CLEAR     50  34  53 CALM      30.20S
GLENWOOD       CLEAR     55  34  44 NE8       30.20R
APPLETON       CLEAR     55  28  35 NE7       30.17R
BENSON         PTCLDY    55  30  38 E3        30.18R
ORTONVILLE     CLEAR     57  30  35 E7        30.17R
MADISON        PTCLDY    52  28  40 NE3       30.17R
WILLMAR        FAIR      61  34  36 E6        30.20R
$$
MNZ033>034-036-042>043-049>051-058-059-050400-
   Central Minnesota

CITY           SKY/WX    TMP DP  RH WIND       PRES   REMARKS
ST CLOUD       CLEAR     53  25  33 NE3       30.20R
SAUK CENTRE    FAIR      55  33  44 NE7       30.20S
PAYNESVILLE    PTCLDY    52  34  51 N3        30.20R
AITKIN         CLEAR     43  28  56 CALM      30.21R
PINE RIVER     CLEAR     43  34  70 CALM      30.25R
BRAINERD       CLEAR     44  29  55 CALM      30.22R
STAPLES        CLEAR     52  30  43 CALM      30.21S
LONG PRAIRIE   FAIR      52  34  50 CALM      30.21R
LITTLE FALLS   CLEAR     52  27  37 CALM      30.21S
LITCHFIELD     PTCLDY    57  34  41 NE3       30.19R
BUFFALO        PTCLDY    58  29  34 N6        30.20R
MAPLE LAKE     PTCLDY    57  33  39 N3        30.20S
$$
MNZ037-044-045-052-053-050400-
   East Central Minnesota

CITY           SKY/WX    TMP DP  RH WIND       PRES   REMARKS
PRINCETON      PTCLDY    55  28  35 N3        30.21R
MORA           CLEAR     45  32  61 CALM      30.23R
CAMBRIDGE      CLEAR     54  36  50 CALM      30.19R
RUSH CITY      MOCLDY    52  28  38 CALM      30.20S
MOOSE LAKE     CLEAR     45  30  57 CALM      30.20R
HINCKLEY       FAIR      45  30  57 N5        30.21R
CLOQUET        CLEAR     45  19  36 CALM      30.22R
MCGREGOR       CLEAR     48  30  49 CALM      30.22S
$$
MNZ071>073-080-081-089-090-097-098-050400-
   Southwest Minnesota

CITY           SKY/WX    TMP DP  RH WIND       PRES   REMARKS
MONTEVIDEO     PTCLDY    55  28  35 E8        30.18R
GRANITE FALLS  PTCLDY    56  28  34 NE5       30.18R
CANBY          MOCLDY    54  27  34 E5        30.17R
MARSHALL       MOCLDY    63  27  25 E10       30.16R
REDWOOD FALLS  MOCLDY    64  25  22 E8        30.17R
OLIVIA         PTCLDY    57  27  30 E5        30.17R
PIPESTONE      CLOUDY    61  27  27 E6        30.15R
WINDOM         MOCLDY    54  30  40 CALM      30.17R
WORTHINGTON    CLOUDY    55  27  33 E9        30.16R
JACKSON        MOCLDY    59  27  29 E9        30.16S
TRACY          MOCLDY    61  32  33 E3        30.16R
SLAYTON        MOCLDY    60  28  29 E5        30.16S
$$
MNZ065>067-074>077-082>085-091>093-050400-
   South Central Minnesota

CITY           SKY/WX    TMP DP  RH WIND       PRES   REMARKS
MANKATO        MOCLDY    61  37  41 E6        30.18R
NEW ULM        MOCLDY    61  28  29 E3        30.17R
ST JAMES       FAIR      55  27  33 NE8       30.17S
FAIRMONT       PTCLDY    57  28  33 NE7       30.15S
GLENCOE        MOCLDY    60  32  34 N3        30.18R
FARIBAULT      PTCLDY    50  39  66 CALM      30.19R
OWATONNA       MOCLDY    54  34  47 NE3       30.18R
WASECA         PTCLDY    55  36  47 NE6       30.18R
ALBERT LEA     MOCLDY    55  45  67 NE3       30.16S
$$
MNZ078>079-086>088-094>096-050400-
   Southeast Minnesota

CITY           SKY/WX    TMP DP  RH WIND       PRES   REMARKS
ROCHESTER      MOCLDY    56  36  47 NE7       30.19R
RED WING       PTCLDY    54  39  58 CALM      30.17S
STANTON        PTCLDY    52  39  60 CALM      30.17R
DODGE CENTER   MOCLDY    57  34  41 NE6       30.18R
WINONA         PTCLDY    55  43  62 CALM      30.17S
AUSTIN         CLOUDY    55  43  62 NE5       30.16R
PRESTON        MOCLDY    57  38  50 NE6       30.17S
$$
ABBREVIATIONS USED IN REMARKS
   TC - TEMPERATURES IN CELSIUS
  WCI - WIND CHILL INDEX
   HX - HEAT INDEX
  VSB - VISIBILITY
$$


USA.gov is the U.S. government's official web portal to all federal, state and local government web resources and services.